[[{"header":{"parameterUnit":"m.s-1","parameterCategory":1,"la1":30.2991,"la2":30.254,"lo1":-89.0895,"lo2":-89.0444,"dy":0.0017,"dx":0.0017,"nx":28,"ny":28,"refTime":"2024-07-30T09:00:00:Z","depth":0,"parameterNumber":2,"parameterNumberName":"U-component_of_WINDS"},"data":[0,0,0,0,0,0,0,0,0,0,0,0,0,0,0,0,0,0,0,0,0,0,0,0,0,0,0,0,0,0,0,0,0,0,0,0,0,0,0,0,0,0,0,0,0,0,0,0,0,0,0,0,0,0,0,0,0,0,3.0923,3.0924,0,3.0955,3.0955,3.0955,3.0876,3.0874,3.0871,3.0869,3.0905,3.0908,3.0911,0,0,0,0,0,0,0,0,0,0,0,0,0,3.0796,3.0799,3.0923,3.0924,3.0924,3.0955,3.0955,3.0956,3.0877,3.0874,3.0871,3.0868,3.0904,3.0908,3.0912,0,0,0,0,0,0,0,0,0,0,0,0,0,3.0842,3.0799,3.0923,3.0888,3.0885,3.0955,3.0955,3.0956,3.0877,3.0874,3.087,3.0866,3.0903,3.0907,3.0912,3.1018,0,0,3.0927,3.0929,0,0,0,0,0,0,0,0,3.0839,3.0847,3.0893,3.0891,3.0888,3.0908,3.0923,3.0977,3.0878,3.0881,3.0869,3.0864,3.0909,3.0913,3.0928,3.1019,3.1021,3.0928,3.0931,3.0933,3.0934,0,0,0,0,0,0,0,3.0836,3.0845,3.0936,3.0894,3.0891,3.0871,3.0874,3.0933,3.0916,3.088,3.0874,3.0879,3.0907,3.0923,3.0928,3.1022,3.0928,3.0932,3.0935,3.0937,3.1197,3.1201,0,0,0,0,0,0,3.0837,3.0843,3.0935,3.0937,3.0854,3.0877,3.0879,3.0905,3.0915,3.0913,3.0882,3.0875,3.0916,3.0922,3.0929,3.1049,3.0933,3.0937,3.094,3.1193,3.1198,3.1202,0,0,0,0,0,0,3.0835,3.0846,3.0933,3.0888,3.0898,3.0883,3.0912,3.0908,3.0923,3.0916,3.0913,3.0902,3.0914,3.0922,3.0995,3.105,3.094,3.0944,3.1188,3.1194,3.12,3.1294,0,0,0,0,0,0,3.0831,3.0846,3.0886,3.089,3.09,3.0999,3.0916,3.0911,3.0932,3.0923,3.0934,3.0932,3.0911,3.0988,3.1,3.1054,3.0948,3.1183,3.1191,3.1198,3.1286,3.1302,3.1316,0,0,0,0,0,3.0827,3.0913,3.0888,3.09,3.095,3.1003,3.1009,3.0982,3.0937,3.0976,3.0971,3.0931,3.1042,3.0996,3.1009,3.1066,3.118,3.1189,3.1197,3.1279,3.1299,3.1316,0,0,0,0,0,0,3.0919,3.0913,3.0885,3.0975,3.0989,3.0989,3.1038,3.1005,3.1034,3.1025,3.0992,3.0995,3.1074,3.1077,3.1026,3.1166,3.1103,3.1115,3.1161,3.118,3.1195,3.1191,3.0952,0,0,0,0,0,3.0949,3.0991,3.0984,3.1064,3.1072,3.1054,3.1076,3.1054,3.1069,3.1075,3.1075,3.1091,3.1129,3.1155,3.119,3.1286,3.1286,3.1331,3.1347,3.1359,3.1369,3.1416,3.1436,3.1231,3.1231,3.1231,0,0,3.1012,3.1014,3.1044,3.1082,3.1091,3.1134,3.106,3.1111,3.1143,3.1083,3.115,3.1151,3.1167,3.1251,3.1288,3.1256,3.1426,3.137,3.1381,3.1384,3.1428,3.1447,3.1464,3.1237,3.1236,3.1235,0,0,3.1149,3.1157,3.1221,3.123,3.1243,3.123,3.1246,3.125,3.1247,3.1314,3.1268,3.1307,3.1374,3.1385,3.14,3.1538,3.1501,3.155,3.163,3.1676,3.1692,3.1706,3.1752,3.1769,3.1561,3.1561,3.1561,0,3.1227,3.1291,3.1259,3.1312,3.1329,3.1274,3.1338,3.1349,3.1374,3.1387,3.1351,3.1431,3.1438,3.1522,3.1555,3.157,3.1585,3.1548,3.1692,3.1706,3.1719,3.1762,3.178,3.1567,3.1566,3.1565,3.1565,0,3.1383,3.1428,3.1479,3.15,3.1524,3.1583,3.1559,3.1587,3.1562,3.1553,3.162,3.1626,3.1659,3.1678,3.1656,3.1758,3.1737,3.1698,3.1633,3.1744,3.1784,3.1801,3.1575,3.1573,3.1571,3.157,0,0,3.1581,3.1581,3.16,3.1607,3.1616,3.165,3.1705,3.1735,3.1757,3.1776,3.182,3.1876,3.1838,3.1855,3.1834,3.1875,3.1979,3.1829,3.1829,3.1854,3.2087,3.2115,3.2135,3.1955,3.1958,3.1961,3.2085,0,3.1713,3.1805,3.1777,3.187,3.1909,3.1856,3.1903,3.1914,3.1906,3.1938,3.193,3.1969,3.1918,3.1926,3.1965,3.1958,3.2025,3.1949,3.1994,3.1996,3.1989,3.2156,3.2187,3.2304,3.2101,3.2103,3.2105,0,3.188,3.1901,3.1997,3.1995,3.2011,3.2054,3.2077,3.2109,3.2119,3.211,3.2127,3.2096,3.2149,3.2085,3.2157,3.2106,3.2123,3.2122,3.2126,3.2127,3.2056,3.216,3.2341,3.2357,3.213,3.2128,3.2127,0,3.2009,3.2063,3.2125,3.2134,3.2134,3.2165,3.2167,3.2173,3.2191,3.2212,3.2223,3.2252,3.2266,3.2288,3.2265,3.2222,3.2339,3.2275,3.2332,3.2332,3.2358,3.2356,3.2541,3.2373,3.2373,3.2373,3.2372,0,3.2159,3.2219,3.2183,3.2222,3.2286,3.2253,3.2319,3.2315,3.232,3.2356,3.2314,3.2349,3.2317,3.235,3.2333,3.2392,3.24,3.2394,3.2388,3.2396,3.2396,3.2405,3.2395,3.2377,3.2376,3.2376,3.2375,0,3.2314,3.2293,3.2357,3.235,3.235,3.2398,3.2392,3.2427,3.2415,3.2462,3.2471,3.2453,3.2488,3.2467,3.2505,3.2493,3.2569,3.2554,3.2565,3.256,3.2617,3.2611,3.2812,3.2836,3.2656,3.2658,3.2659,0,3.241,3.2454,3.2451,3.2471,3.2474,3.2508,3.2525,3.2494,3.2514,3.2527,3.256,3.2591,3.2614,3.2673,3.2663,3.2691,3.2674,3.2742,3.2678,3.2683,3.2671,3.2667,3.267,3.2755,3.2757,3.2759,3.276,0,3.258,3.2566,3.2592,3.2613,3.2635,3.2651,3.2664,3.2683,3.2651,3.2676,3.271,3.2728,3.2763,3.2794,3.2816,3.2818,3.2784,3.2781,3.2795,3.2802,3.2805,3.2801,3.2597,3.2776,3.2774,3.2773,3.2772,3.2772,3.2706,3.2741,3.2743,3.2772,3.2778,3.2789,3.282,3.2811,3.2838,3.2863,3.2844,3.2883,3.2889,3.2915,3.2921,3.2952,3.2924,3.2946,3.295,3.2955,3.2961,3.2802,3.2956,3.2956,3.2956,3.2955,3.2955,0,3.2871,3.2869,3.2896,3.2913,3.2935,3.2899,3.291,3.2932,3.2966,3.2974,3.2996,3.3034,3.3063,3.3054,3.308,3.3105,3.309,3.3113,3.3109,3.311,3.2987,3.297,3.3125,3.3125,3.3125,3.3125,3.3125,3.3125,3.296,3.3015,3.3001,3.3059,3.3056,3.3093,3.3102,3.3112,3.3117,3.316,3.3183,3.3176,3.3177,3.3201,3.3225,3.3222,3.3232,3.326,3.3251,3.3136,3.3119,3.3103,3.3087,3.3264,3.3264,3.3371,3.3372,3.3373]},{"header":{"parameterUnit":"m.s-1","parameterCategory":1,"la1":30.2991,"la2":30.254,"lo1":-89.0895,"lo2":-89.0444,"dy":0.0017,"dx":0.0017,"nx":28,"ny":28,"refTime":"2024-07-30T09:00:00:Z","depth":0,"parameterNumber":3,"parameterNumberName":"V-component_of_WINDS"},"data":[0,0,0,0,0,0,0,0,0,0,0,0,0,0,0,0,0,0,0,0,0,0,0,0,0,0,0,0,0,0,0,0,0,0,0,0,0,0,0,0,0,0,0,0,0,0,0,0,0,0,0,0,0,0,0,0,0,0,2.7531,2.7532,0,2.7639,2.764,2.7641,2.7641,2.764,2.7638,2.7637,2.7745,2.7749,2.7754,0,0,0,0,0,0,0,0,0,0,0,0,0,2.7323,2.7327,2.7531,2.7532,2.7534,2.7638,2.764,2.7641,2.7641,2.764,2.7638,2.7636,2.7744,2.7749,2.7754,0,0,0,0,0,0,0,0,0,0,0,0,0,2.742,2.7329,2.7531,2.7546,2.7549,2.7638,2.764,2.7642,2.7642,2.764,2.7638,2.7636,2.7742,2.7748,2.7755,2.7835,0,0,2.7774,2.7776,0,0,0,0,0,0,0,0,2.7415,2.7428,2.7543,2.7546,2.7549,2.7624,2.7606,2.7706,2.7642,2.7607,2.7637,2.7635,2.7707,2.7716,2.774,2.784,2.7845,2.7774,2.7778,2.7781,2.7783,0,0,0,0,0,0,0,2.7408,2.7423,2.7574,2.7544,2.7548,2.7547,2.7559,2.7625,2.7667,2.7609,2.761,2.7623,2.7708,2.7734,2.7743,2.7846,2.7774,2.778,2.7784,2.7786,2.8015,2.8017,0,0,0,0,0,0,2.7399,2.7418,2.757,2.7577,2.7475,2.7553,2.7566,2.7602,2.7666,2.7674,2.7624,2.7622,2.7725,2.7736,2.7747,2.7844,2.7781,2.7787,2.779,2.8013,2.8016,2.8018,0,0,0,0,0,0,2.7394,2.7412,2.7566,2.7498,2.7517,2.7559,2.76,2.7605,2.7632,2.7677,2.7684,2.7644,2.7723,2.7738,2.7813,2.7848,2.7789,2.7795,2.801,2.8014,2.8017,2.804,0,0,0,0,0,0,2.7388,2.7411,2.7442,2.7498,2.7521,2.7631,2.7602,2.7609,2.7643,2.7641,2.7698,2.7705,2.7723,2.7803,2.7819,2.7855,2.78,2.8007,2.8012,2.8016,2.8036,2.8043,2.805,0,0,0,0,0,2.7381,2.7444,2.7444,2.7462,2.7561,2.7633,2.7646,2.7666,2.7646,2.7677,2.7706,2.7703,2.7841,2.7811,2.7829,2.7867,2.8005,2.8011,2.8016,2.8033,2.8042,2.805,0,0,0,0,0,0,2.7391,2.7452,2.7452,2.7536,2.7579,2.7633,2.7674,2.7675,2.7724,2.7721,2.7743,2.7755,2.783,2.7856,2.7821,2.7948,2.7921,2.793,2.7928,2.7937,2.7944,2.7936,2.7805,0,0,0,0,0,2.7403,2.7457,2.7507,2.7576,2.7598,2.7632,2.7664,2.7675,2.7721,2.7739,2.7774,2.7818,2.7871,2.7905,2.7957,2.804,2.8051,2.8075,2.8082,2.8087,2.8095,2.8139,2.815,2.8036,2.8036,2.8035,0,0,2.7429,2.7468,2.7501,2.7579,2.7614,2.7668,2.7647,2.7706,2.7746,2.7748,2.7821,2.7847,2.7898,2.7976,2.8013,2.8001,2.8129,2.8094,2.8098,2.8103,2.8146,2.8156,2.8166,2.8039,2.8038,2.8038,0,0,2.7503,2.7539,2.7599,2.7635,2.7688,2.771,2.7725,2.7778,2.7796,2.7869,2.7871,2.7919,2.801,2.8046,2.8076,2.8162,2.816,2.8178,2.8214,2.8257,2.8266,2.8274,2.8304,2.8314,2.8185,2.8185,2.8185,0,2.7527,2.761,2.763,2.7689,2.7723,2.7727,2.7788,2.7821,2.7888,2.7911,2.7896,2.801,2.8045,2.8131,2.8152,2.8176,2.8193,2.8171,2.8263,2.8272,2.8279,2.8308,2.8319,2.8187,2.8187,2.8186,2.8186,0,2.7637,2.7694,2.7737,2.7802,2.784,2.79,2.7928,2.7964,2.7972,2.7995,2.8069,2.811,2.817,2.8191,2.8199,2.8279,2.8269,2.8259,2.8232,2.8292,2.8319,2.833,2.8189,2.8189,2.8188,2.8188,0,0,2.7721,2.7796,2.7811,2.784,2.7898,2.7943,2.8002,2.806,2.809,2.8136,2.8185,2.8262,2.8253,2.8287,2.8299,2.8337,2.8401,2.8322,2.8323,2.8334,2.8489,2.8496,2.8509,2.84,2.8402,2.8404,2.8485,0,2.78,2.7906,2.7926,2.8017,2.807,2.8074,2.8125,2.8166,2.8189,2.8236,2.8261,2.8315,2.8299,2.8319,2.8357,2.8385,2.8432,2.838,2.8445,2.8447,2.8432,2.8523,2.8531,2.8605,2.8495,2.8497,2.8499,0,2.7907,2.7956,2.8053,2.8103,2.8126,2.8172,2.8226,2.8272,2.8318,2.8332,2.8369,2.8377,2.8437,2.8408,2.8491,2.8454,2.8482,2.85,2.8503,2.851,2.8476,2.8531,2.8629,2.864,2.8516,2.8514,2.8513,0,2.7957,2.8047,2.8116,2.8141,2.8202,2.8234,2.8261,2.8305,2.8338,2.8385,2.8407,2.8461,2.849,2.8531,2.8552,2.8529,2.8633,2.8606,2.8645,2.8645,2.8667,2.8665,2.877,2.8686,2.8686,2.8685,2.8685,0,2.8044,2.8102,2.814,2.8182,2.8248,2.8269,2.8333,2.8359,2.8398,2.8445,2.8452,2.8496,2.8522,2.8569,2.8586,2.8651,2.8665,2.8677,2.868,2.8676,2.8674,2.8694,2.8689,2.8688,2.8688,2.8687,2.8687,0,2.811,2.8138,2.8214,2.8265,2.8279,2.8325,2.8368,2.8409,2.8432,2.8491,2.8506,2.8542,2.8598,2.8623,2.8692,2.8703,2.8778,2.8778,2.8762,2.8763,2.8801,2.8797,2.8922,2.8939,2.8844,2.8845,2.8846,0,2.8163,2.8209,2.8265,2.8297,2.8324,2.8376,2.841,2.8433,2.8468,2.8523,2.8557,2.8613,2.8659,2.8748,2.8779,2.8832,2.8833,2.8873,2.8841,2.8834,2.8832,2.8829,2.8833,2.8879,2.888,2.888,2.8881,0,2.8254,2.8265,2.8314,2.8368,2.8408,2.8452,2.8494,2.852,2.8549,2.8587,2.8645,2.8681,2.8751,2.8806,2.886,2.8887,2.8889,2.8891,2.8903,2.8898,2.8887,2.8893,2.8777,2.8888,2.8887,2.8887,2.8886,2.8886,2.8315,2.8355,2.84,2.8454,2.8489,2.8528,2.8569,2.8596,2.8645,2.8704,2.8714,2.8775,2.8818,2.8892,2.892,2.8967,2.8957,2.8975,2.8979,2.8983,2.8984,2.888,2.8977,2.8977,2.8977,2.8977,2.8977,0,2.8405,2.8434,2.8484,2.8543,2.8585,2.8583,2.863,2.8665,2.8719,2.876,2.8805,2.887,2.8923,2.8959,2.9013,2.9043,2.9045,2.9057,2.9054,2.906,2.8991,2.8975,2.9054,2.9054,2.9054,2.9054,2.9054,2.9054,2.8456,2.8524,2.854,2.8624,2.8653,2.8713,2.8739,2.8775,2.8808,2.888,2.8925,2.8948,2.8986,2.9043,2.9091,2.91,2.9119,2.9131,2.9139,2.9073,2.9065,2.9057,2.9042,2.9135,2.9135,2.9205,2.9205,2.9206]}]]